Location: Edinburgh
(55.9500°N, 3.1600°W)
Time: 10:37:43
(UTC+01:00)

Envisat - Pass Details

Date: 10 October 2017
Orbit: 764 x 766 km, 98.2° (Epoch: 23 October)

Event Time Altitude Azimuth Distance (km) Brightness Sun altitude
Exits shadow 22:47:15 - 244° (WSW) 2,639 5.9 -34.5°
Reaches altitude 10° 22:49:18 10° 264° (W) 2,309 5.8 -34.7°
Maximum altitude 22:50:41 11° 280° (W) 2,240 5.9 -34.8°
Drops below altitude 10° 22:52:04 10° 296° (WNW) 2,313 6.1 -34.9°
Sets 22:56:26 0° 332° (NNW) 3,247 7.2 -35.3°
